Location: *
(51.2167°N, 10.0667°E)
Time: 13:53:24
(UTC+00:00)

COSMO-SKYMED 1 - Pass Details

Date: 12 December 2019
Orbit: 621 x 623 km, 97.9° (Epoch: 23 January)

Event Time Altitude Azimuth Distance (km) Brightness Sun altitude
Exits shadow 18:06:36 45° 335° (NNW) 852 3.3 -26.0°
Maximum altitude 18:07:32 56° 290° (WNW) 745 3.1 -26.1°
Drops below altitude 10° 18:11:47 10° 212° (SSW) 1,991 5.6 -26.8°
Sets 18:13:59 0° 208° (SSW) 2,892 6.4 -27.1°
